Weather Roundup
Issued by NWS Chicago, IL

Home | Current Version | Previous Version | Text Only | Print | Product List | Glossary On
Versions: 1 2 3 4 5 6 7 8 9 10 11 12 13 14 15 16 17 18 19 20 21 22 23 24 25 26 27 28 29 30 31 32 33 34 35 36 37 38 39 40 41 42 43 44 45 46 47 48 49 50
657
NZUS59 KLOT 270203
HRRLOT

CHICAGO AREA WEATHER ROUNDUP
NATIONAL WEATHER SERVICE CHICAGO/ROMEOVILLE IL
900 PM CDT MON SEP 26 2016

NOTE: "FAIR" INDICATES FEW OR NO CLOUDS BELOW 12,000 FEET WITH NO
SIGNIFICANT WEATHER AND/OR OBSTRUCTIONS TO VISIBILITY.

* THESE STATIONS ARE NOT UNDER NWS QUALITY CONTROL. THEY ALSO MAY NOT
  REPORT WEATHER SUCH AS PRECIPITATION OR FOG.

ILZ005-006-012>014-019>023-270300-
NORTHEAST ILLINOIS

CITY           SKY/WX    TMP DP  RH WIND       PRES   REMARKS
OHARE          CLEAR     60  34  37 SW7       29.94R
MIDWAY         CLEAR     63  33  32 SW8       29.95R
AURORA         CLEAR     56  38  50 SW6       29.96S
LANSING*       CLEAR     54  40  59 SW6       29.97R
WAUKEGAN       CLEAR     56  38  50 SW6       29.90S
DUPAGE AIRPORT CLEAR     56  36  47 SW8       29.94S
WHEELING       CLEAR     62  33  33 SW8       29.94S
KANKAKEE*      CLEAR     55  38  51 SW5       30.00S
NORTHERLY ISL    N/A     65  32  29 SW3         N/A
$$

WIZ051-052-058>065-066-070>072-270300-
SOUTHEAST WISCONSIN

CITY           SKY/WX    TMP DP  RH WIND       PRES   REMARKS
MILWAUKEE      CLEAR     60  38  43 W6        29.88S
KENOSHA*       CLEAR     55  38  52 SW10      29.90S
RACINE*        CLEAR     58  36  43 SW7       29.90S
WAUKESHA       CLEAR     52  37  58 W3        29.90R
WEST BEND      CLEAR     54  37  54 W5        29.87S
$$

INZ001>003-010>013-019-020-270300-
NORTHWEST INDIANA

CITY           SKY/WX    TMP DP  RH WIND       PRES   REMARKS
GARY*          NOT AVBL
MICHIGAN CITY* NOT AVBL
RENSSELAER*    NOT AVBL
VALPARAISO     CLEAR     55  40  56 W6        29.97S
$$

LMZ740>746-270300-
SOUTHERN LAKE MICHIGAN

STATION/POSITION TIME  SKY/WX   TEMP WIND        PRES    VSBY
                                AIR  DIR/SP/G
                 (UTC)          (F)  (DEG/KT/KT) (MB)    (MI)
HARRISON CRIB    0100            67  260/ 16/ 19   N/A
BURNHAM HARBOR   0200            65  270/  4/ 13   N/A
CALUMET HARBOR   0100            65  230/  8/ 12 1013.8R
BURNS HARBOR     0104            67  260/ 16/ 20 1014.6R
MICHIGAN CITY    0100            67  250/ 25/ 28   N/A
$$

ABBREVIATIONS USED IN REMARKS
   TC - TEMPERATURE IN CELSIUS
  WCI - WIND CHILL INDEX
   HX - HEAT INDEX
  VSB - VISIBILITY
$$




USA.gov is the U.S. government's official web portal to all federal, state and local government web resources and services.